EW5058 Weather Reports


Display with metric or nautical units.
time (UTC)temp
F
wind
direction
speed
MPH
gust
MPH
rain 1hr
in
rain 24hr
in
rain mn
in
humidity
%
barometer
mb
20260502185839 61 315 9.0 12.0 0.00 0.00 0.00 50 1012.2
20260502184820 62 293 6.0 9.0 0.00 0.00 0.00 49 1012.4
20260502183819 62 315 9.0 14.0 0.00 0.00 0.00 48 1012.4
20260502182820 63 293 7.0 10.0 0.00 0.00 0.00 48 1012.6
20260502181819 62 315 7.0 9.0 0.00 0.00 0.00 50 1012.8
20260502180819 61 315 10.0 14.0 0.00 0.00 0.00 55 1012.8
20260502163819 58 338 10.0 13.0 0.00 0.00 0.00 57 1013.4
20260502162819 58 338 5.0 6.0 0.00 0.00 0.00 55 1013.5
20260502161820 58 315 6.0 8.0 0.00 0.00 0.00 58 1013.6
20260502160819 58 338 8.0 12.0 0.00 0.00 0.00 59 1013.7
20260502151819 58 315 6.0 9.0 0.00 0.00 0.00 67 1014.1
20260502150818 57 315 8.0 11.0 0.00 0.00 0.00 66 1013.9
20260502122859 54 338 8.0 11.0 0.00 0.00 0.00 72 1013.5
20260502121819 54 338 9.0 14.0 0.00 0.00 0.00 71 1013.4
20260502120819 53 338 7.0 10.0 0.00 0.00 0.00 73 1013.4
20260502115919 53 315 9.0 11.0 0.00 0.00 0.00 72 1013.5
20260502114839 53 315 8.0 13.0 0.00 0.00 0.00 72 1013.6
20260502113819 53 315 5.0 8.0 0.00 0.00 0.00 72 1013.7
20260502112838 53 315 8.0 12.0 0.00 0.00 0.00 72 1013.5
20260502111858 53 315 7.0 11.0 0.00 0.00 0.00 74 1013.3
20260502110839 53 315 6.0 8.0 0.00 0.00 0.00 75 1013.2
20260502105819 53 315 4.0 6.0 0.00 0.00 0.00 75 1013.2
20260502104839 53 315 5.0 8.0 0.00 0.00 0.00 74 1013.0
20260502103819 53 315 8.0 10.0 0.00 0.00 0.00 74 1013.0
20260502102819 53 315 5.0 9.0 0.00 0.00 0.00 74 1012.9
20260502101859 53 315 8.0 13.0 0.00 0.00 0.00 74 1012.7
20260502100818 53 338 8.0 11.0 0.00 0.00 0.00 75 1012.7
20260502090838 53 338 3.0 4.0 0.00 0.00 0.00 85 1012.5
20260502070818 51 0.0 0.0 0.00 0.00 0.00 88 1011.6
20260502065840 51 0.0 0.0 0.00 0.00 0.00 87 1011.6
20260502064820 51 0.0 0.0 0.00 0.00 0.00 87 1011.7
20260502063818 52 0.0 0.0 0.00 0.00 0.00 87 1011.8
20260502062820 52 0.0 0.0 0.00 0.00 0.00 86 1011.9
20260502061818 52 0.0 0.0 0.00 0.00 0.00 86 1012.0
20260502060840 52 0.0 0.0 0.00 0.00 0.00 85 1012.3
20260502055820 53 0.0 0.0 0.00 0.00 0.00 84 1012.5
20260502054820 53 0.0 0.0 0.00 0.00 0.00 84 1012.6
20260502053818 53 0.0 0.0 0.00 0.00 0.00 83 1012.7
20260502052820 53 0.0 2.0 0.00 0.00 0.00 83 1012.5
20260502051820 54 0.0 1.0 0.00 0.00 0.00 82 1012.5
20260502050838 54 0.0 0.0 0.00 0.00 0.00 82 1012.4
20260502045819 54 0.0 0.0 0.00 0.00 0.00 82 1012.3
20260502044820 54 180 1.0 1.0 0.00 0.00 0.00 81 1012.3
20260502043820 54 158 2.0 5.0 0.00 0.00 0.00 81 1012.3
20260502042820 54 180 1.0 2.0 0.00 0.00 0.00 81 1012.4
20260502041820 54 180 1.0 3.0 0.00 0.00 0.00 81 1012.4
20260502040820 54 203 1.0 3.0 0.00 0.00 0.00 81 1012.5
20260502035819 54 180 1.0 2.0 0.00 0.00 0.00 81 1012.5
20260502034818 54 0.0 1.0 0.00 0.00 0.00 81 1012.5
20260502033819 54 180 1.0 4.0 0.00 0.00 0.00 81 1012.4
20260502032818 54 180 2.0 3.0 0.00 0.00 0.00 81 1012.4
20260502031819 54 180 1.0 2.0 0.00 0.00 0.00 81 1012.3
20260502030819 54 203 3.0 4.0 0.00 0.00 0.00 81 1012.1
20260502025819 54 135 2.0 3.0 0.00 0.00 0.00 81 1012.0
20260502024819 55 158 4.0 6.0 0.00 0.00 0.00 80 1012.0
20260502023818 55 158 3.0 6.0 0.00 0.00 0.00 80 1012.1
20260502022819 56 180 3.0 7.0 0.00 0.00 0.00 79 1012.4
20260502021819 56 158 3.0 5.0 0.00 0.00 0.00 79 1012.3
20260502020819 56 158 2.0 6.0 0.00 0.00 0.00 77 1012.3
20260502015819 56 180 3.0 5.0 0.00 0.00 0.00 76 1012.2
20260502014818 57 158 2.0 3.0 0.00 0.00 0.00 75 1012.1
20260502013819 57 180 4.0 6.0 0.00 0.00 0.00 73 1011.7
20260502012839 56 135 1.0 2.0 0.00 0.00 0.00 70 1011.9
20260502011839 56 180 1.0 4.0 0.00 0.00 0.00 69 1012.0
20260502010839 57 180 2.0 7.0 0.00 0.00 0.00 67 1012.0
20260502005818 57 135 1.0 3.0 0.00 0.00 0.00 66 1011.8
20260502004818 57 0.0 1.0 0.00 0.00 0.00 64 1011.8
20260502003838 57 135 2.0 2.0 0.00 0.00 0.00 64 1011.7
20260502002818 58 0.0 1.0 0.00 0.00 0.00 63 1011.7
20260502001818 58 203 1.0 3.0 0.00 0.00 0.00 63 1011.7
20260502000818 58 158 2.0 4.0 0.00 0.00 0.00 60 1011.4
20260501235819 59 180 2.0 3.0 0.00 0.00 0.00 57 1011.4
20260501234818 60 135 1.0 3.0 0.00 0.00 0.00 55 1011.3
20260501233818 60 135 2.0 3.0 0.00 0.00 0.00 53 1011.4
20260501232819 61 180 3.0 9.0 0.00 0.00 0.00 52 1011.5
20260501231838 61 180 2.0 4.0 0.00 0.00 0.00 51 1011.5
20260501230818 62 180 2.0 5.0 0.00 0.00 0.00 49 1011.3
20260501225838 62 158 2.0 4.0 0.00 0.00 0.00 48 1011.2
20260501224818 62 180 3.0 7.0 0.00 0.00 0.00 45 1011.2
20260501223818 62 180 1.0 3.0 0.00 0.00 0.00 46 1011.1
20260501222838 62 135 1.0 3.0 0.00 0.00 0.00 44 1011.2
20260501221818 62 180 3.0 5.0 0.00 0.00 0.00 44 1011.3
20260501220818 62 158 3.0 4.0 0.00 0.00 0.00 45 1011.4
20260501215820 62 180 4.0 7.0 0.00 0.00 0.00 45 1011.4
20260501214820 62 180 1.0 3.0 0.00 0.00 0.00 46 1011.4
20260501213820 62 158 3.0 5.0 0.00 0.00 0.00 43 1011.6
20260501212820 62 158 3.0 4.0 0.00 0.00 0.00 45 1011.6
20260501211818 62 158 2.0 4.0 0.00 0.00 0.00 43 1011.7
20260501210820 63 203 4.0 5.0 0.00 0.00 0.00 47 1011.8
20260501205818 63 180 3.0 6.0 0.00 0.00 0.00 45 1011.9
20260501204820 64 225 2.0 3.0 0.00 0.00 0.00 45 1012.1
20260501203820 64 180 1.0 4.0 0.00 0.00 0.00 49 1012.1
20260501202840 64 0.0 0.0 0.00 0.00 0.00 46 1012.2
20260501201820 64 203 1.0 3.0 0.00 0.00 0.00 45 1012.2
20260501200819 64 225 2.0 3.0 0.00 0.00 0.00 45 1012.4
20260501195820 66 158 3.0 6.0 0.00 0.00 0.00 46 1012.6
20260501194838 65 0.0 1.0 0.00 0.00 0.00 46 1012.6
20260501193820 68 180 2.0 4.0 0.00 0.00 0.00 42 1012.7
20260501192820 66 270 1.0 2.0 0.00 0.00 0.00 45 1012.8
20260501191820 64 180 2.0 4.0 0.00 0.00 0.00 46 1012.9
20260501190818 68 180 3.0 5.0 0.00 0.00 0.00 42 1012.9